When you browse on this site, cookies collect data to enhance your experience and personalize the content and advertising you see.
Visit our Privacy Policy to learn more. By continuing to use the site, you agree to this use of cookies and data.
  • In Lithuania
  • List of Countries
  • For 7 days
  • Water Temperature
  • Weather Map
  • Weather Widgets
  • user-avatar
    Login

    Hourly Weather Klaipeda

    Today, 23 February, Sunday

    Time Temperature Precipitation Wind Pressure Humidity
    00:00 +1°C° 0.4 mm 14 mps 748 mmHg 72%
    01:00 +2°C° 0 mm 12 mps 748 mmHg 72%
    02:00 +2°C° 0.1 mm 12 mps 748 mmHg 73%
    03:00 0°C° 0.1 mm 12 mps 748 mmHg 73%
    04:00 0°C° 0.1 mm 13 mps 748 mmHg 74%
    05:00 0°C° 0 mm 13 mps 748 mmHg 75%
    06:00 0°C° 0 mm 13 mps 748 mmHg 75%
    07:00 0°C° 0 mm 12 mps 748 mmHg 76%
    08:00 +1°C° 0 mm 13 mps 748 mmHg 74%
    09:00 +1°C° 0 mm 13 mps 748 mmHg 73%
    10:00 +1°C° 0 mm 13 mps 748 mmHg 71%
    11:00 +1°C° 0 mm 13 mps 748 mmHg 73%
    12:00 +1°C° 0 mm 13 mps 748 mmHg 74%
    13:00 +2°C° 0 mm 12 mps 748 mmHg 75%
    14:00 +2°C° 0 mm 11 mps 748 mmHg 75%
    15:00 +2°C° 0 mm 10 mps 747 mmHg 76%
    16:00 +2°C° 0 mm 9 mps 746 mmHg 76%
    17:00 +1°C° 0 mm 8 mps 746 mmHg 79%
    18:00 +1°C° 0 mm 8 mps 746 mmHg 82%
    19:00 0°C° 0 mm 7 mps 746 mmHg 85%
    20:00 0°C° 0.1 mm 7 mps 745 mmHg 86%
    21:00 0°C° 0.1 mm 7 mps 745 mmHg 87%
    22:00 0°C° 0.1 mm 7 mps 745 mmHg 88%
    23:00 0°C° 0 mm 7 mps 745 mmHg 88%

    Tomorrow, 24 February, Monday

    Time Temperature Precipitation Wind Pressure Humidity
    00:00 0°C° 0 mm 7 mps 746 mmHg 88%
    01:00 0°C° 0 mm 7 mps 746 mmHg 88%
    02:00 0°C° 0 mm 7 mps 747 mmHg 89%
    03:00 0°C° 0 mm 7 mps 747 mmHg 89%
    04:00 0°C° 0 mm 8 mps 748 mmHg 90%
    05:00 0°C° 0.1 mm 7 mps 749 mmHg 85%
    06:00 0°C° 0.1 mm 7 mps 751 mmHg 80%
    07:00 -1°C° 0.1 mm 7 mps 752 mmHg 74%
    08:00 0°C° 0 mm 7 mps 753 mmHg 71%
    09:00 +2°C° 0 mm 7 mps 754 mmHg 68%
    10:00 +3°C° 0 mm 7 mps 755 mmHg 65%
    11:00 +3°C° 0 mm 6 mps 755 mmHg 61%
    12:00 +3°C° 0 mm 6 mps 756 mmHg 57%
    13:00 +3°C° 0 mm 5 mps 756 mmHg 53%
    14:00 +3°C° 0 mm 5 mps 756 mmHg 55%
    15:00 +3°C° 0 mm 4 mps 756 mmHg 58%
    16:00 +3°C° 0 mm 4 mps 756 mmHg 60%
    17:00 +1°C° 0 mm 4 mps 756 mmHg 68%
    18:00 0°C° 0 mm 4 mps 756 mmHg 75%
    19:00 -1°C° 0 mm 4 mps 756 mmHg 83%
    20:00 -1°C° 0 mm 4 mps 755 mmHg 85%
    21:00 0°C° 0 mm 5 mps 754 mmHg 86%
    22:00 0°C° 0 mm 5 mps 754 mmHg 88%
    23:00 0°C° 0 mm 5 mps 753 mmHg 88%

    Day after tomorrow, 25 February, Tuesday

    Time Temperature Precipitation Wind Pressure Humidity
    00:00 0°C° 0 mm 5 mps 752 mmHg 87%
    01:00 0°C° 0 mm 5 mps 751 mmHg 87%
    02:00 -1°C° 0.1 mm 6 mps 750 mmHg 89%
    03:00 -2°C° 0.1 mm 6 mps 749 mmHg 91%
    04:00 -2°C° 0.1 mm 7 mps 748 mmHg 93%
    05:00 -2°C° 0.2 mm 8 mps 747 mmHg 94%
    06:00 -3°C° 0.2 mm 9 mps 746 mmHg 95%
    07:00 -3°C° 0.2 mm 10 mps 745 mmHg 95%
    08:00 -2°C° 0.8 mm 10 mps 744 mmHg 95%
    09:00 0°C° 0.8 mm 10 mps 743 mmHg 95%
    10:00 0°C° 0.8 mm 10 mps 742 mmHg 94%
    11:00 +1°C° 0.4 mm 10 mps 741 mmHg 86%
    12:00 +2°C° 0.4 mm 10 mps 741 mmHg 79%
    13:00 +3°C° 0.4 mm 9 mps 741 mmHg 71%
    14:00 +2°C° 0.1 mm 9 mps 741 mmHg 72%
    15:00 +2°C° 0.1 mm 9 mps 741 mmHg 72%
    16:00 +2°C° 0.1 mm 9 mps 740 mmHg 73%
    17:00 +1°C° 0.2 mm 9 mps 740 mmHg 75%
    18:00 +1°C° 0.2 mm 9 mps 740 mmHg 78%
    19:00 0°C° 0.2 mm 9 mps 740 mmHg 81%
    20:00 +1°C° 0.1 mm 10 mps 739 mmHg 78%
    21:00 +1°C° 0.1 mm 11 mps 739 mmHg 75%
    22:00 0°C° 0.1 mm 12 mps 738 mmHg 73%
    23:00 0°C° 0.3 mm 13 mps 738 mmHg 78%

    26 February, Wednesday

    Time Temperature Precipitation Wind Pressure Humidity
    00:00 -1°C° 0.3 mm 14 mps 737 mmHg 84%
    01:00 -1°C° 0.3 mm 14 mps 737 mmHg 89%
    02:00 -1°C° 0.6 mm 14 mps 736 mmHg 89%
    03:00 -1°C° 0.6 mm 15 mps 736 mmHg 88%
    04:00 -3°C° 0.6 mm 15 mps 736 mmHg 88%
    05:00 -1°C° 0.3 mm 15 mps 736 mmHg 85%
    06:00 -1°C° 0.3 mm 15 mps 735 mmHg 82%
    07:00 -1°C° 0.3 mm 15 mps 735 mmHg 80%
    08:00 -1°C° 0.1 mm 14 mps 736 mmHg 79%
    09:00 -1°C° 0.1 mm 14 mps 736 mmHg 78%
    10:00 0°C° 0.1 mm 14 mps 736 mmHg 77%
    11:00 0°C° 0.1 mm 13 mps 737 mmHg 78%
    12:00 0°C° 0.1 mm 13 mps 738 mmHg 79%
    13:00 -1°C° 0.1 mm 13 mps 739 mmHg 80%
    14:00 -1°C° 0.1 mm 11 mps 739 mmHg 82%
    15:00 0°C° 0.1 mm 9 mps 740 mmHg 83%
    16:00 0°C° 0.1 mm 7 mps 740 mmHg 85%
    17:00 -1°C° 0 mm 7 mps 741 mmHg 85%
    18:00 -1°C° 0 mm 6 mps 742 mmHg 85%
    19:00 -2°C° 0 mm 6 mps 743 mmHg 84%
    20:00 -2°C° 0 mm 6 mps 743 mmHg 84%
    21:00 -3°C° 0 mm 6 mps 744 mmHg 84%
    22:00 -3°C° 0 mm 6 mps 744 mmHg 84%
    23:00 -4°C° 0 mm 5 mps 745 mmHg 82%

    27 February, Thursday

    Time Temperature Precipitation Wind Pressure Humidity
    00:00 -4°C° 0 mm 5 mps 745 mmHg 80%
    01:00 -4°C° 0 mm 5 mps 746 mmHg 79%
    02:00 -3°C° 0 mm 4 mps 746 mmHg 77%
    03:00 -4°C° 0 mm 4 mps 747 mmHg 75%
    04:00 -4°C° 0 mm 4 mps 747 mmHg 73%
    05:00 -4°C° 0 mm 4 mps 748 mmHg 72%
    06:00 -4°C° 0 mm 3 mps 748 mmHg 71%
    07:00 -3°C° 0 mm 2 mps 749 mmHg 70%
    08:00 -2°C° 0 mm 2 mps 749 mmHg 64%
    09:00 -1°C° 0 mm 2 mps 750 mmHg 58%
    10:00 +1°C° 0 mm 2 mps 750 mmHg 52%
    11:00 0°C° 0 mm 3 mps 750 mmHg 51%
    12:00 +1°C° 0 mm 3 mps 750 mmHg 50%
    13:00 0°C° 0 mm 4 mps 751 mmHg 48%
    14:00 0°C° 0 mm 4 mps 751 mmHg 51%
    15:00 -1°C° 0 mm 4 mps 751 mmHg 54%
    16:00 -1°C° 0 mm 4 mps 751 mmHg 56%
    17:00 -1°C° 0 mm 3 mps 751 mmHg 60%
    18:00 -2°C° 0 mm 2 mps 751 mmHg 63%
    19:00 -2°C° 0 mm 2 mps 751 mmHg 66%
    20:00 0°C° 0.1 mm 1 mps 751 mmHg 68%
    21:00 0°C° 0.1 mm 1 mps 751 mmHg 69%
    22:00 0°C° 0.1 mm 1 mps 751 mmHg 71%
    23:00 0°C° 0.1 mm 1 mps 750 mmHg 75%

    28 February, Friday

    Time Temperature Precipitation Wind Pressure Humidity
    00:00 -1°C° 0.1 mm 1 mps 750 mmHg 79%
    01:00 -1°C° 0.1 mm 1 mps 750 mmHg 83%
    02:00 -3°C° 0.1 mm 2 mps 749 mmHg 83%
    03:00 -3°C° 0.1 mm 2 mps 749 mmHg 84%
    04:00 -4°C° 0.1 mm 3 mps 749 mmHg 84%
    05:00 -4°C° 0 mm 3 mps 748 mmHg 82%
    06:00 -4°C° 0 mm 4 mps 748 mmHg 81%
    07:00 -4°C° 0 mm 4 mps 748 mmHg 79%
    08:00 -3°C° 0 mm 4 mps 748 mmHg 74%
    09:00 -4°C° 0 mm 5 mps 748 mmHg 69%
    10:00 -2°C° 0 mm 5 mps 748 mmHg 64%
    11:00 -1°C° 0 mm 5 mps 748 mmHg 61%
    12:00 -1°C° 0 mm 4 mps 749 mmHg 58%
    13:00 -1°C° 0 mm 4 mps 749 mmHg 55%
    14:00 -1°C° 0 mm 4 mps 749 mmHg 57%
    15:00 0°C° 0 mm 3 mps 750 mmHg 58%
    16:00 -1°C° 0 mm 3 mps 751 mmHg 60%
    17:00 -1°C° 0 mm 3 mps 751 mmHg 61%
    18:00 -2°C° 0 mm 2 mps 751 mmHg 63%
    19:00 -3°C° 0 mm 2 mps 752 mmHg 65%
    20:00 -3°C° 0 mm 2 mps 752 mmHg 65%
    21:00 -3°C° 0 mm 2 mps 752 mmHg 66%
    22:00 -1°C° 0 mm 1 mps 753 mmHg 66%
    23:00 -3°C° 0 mm 2 mps 753 mmHg 66%
    Show more